,,PA_Meas_PMT16A,,PR_Meas_QMR101_102,,RH_Meas_QMH101,,SR_Meas_QMS101,,TA_Meas_QMH101,,GenWind,,GenWind,
time,status,PA,status,PR,status,RH,status,SR,status,TA,status,DirAvg,status,SpdAvg,
2010-04-07, 00:00:04,VALID,917.792,VALID,0,VALID,89.5142,VALID,0,VALID,22.2176,VALID,154,VALID,0.907422,
2010-04-07, 00:01:04,VALID,917.836,VALID,0,VALID,89.3769,VALID,0,VALID,22.1981,VALID,154,VALID,0.699609,
2010-04-07, 00:02:04,VALID,917.828,VALID,0,VALID,89.415,VALID,0,VALID,22.1981,VALID,154,VALID,0.992969,
2010-04-07, 00:03:04,VALID,917.86,VALID,0,VALID,89.3846,VALID,0,VALID,22.1981,VALID,154,VALID,0.791797,
2010-04-07, 00:04:04,VALID,917.828,VALID,0,VALID,89.2168,VALID,0,VALID,22.2176,VALID,154,VALID,0.684375,
2010-04-07, 00:05:04,VALID,917.854,VALID,0,VALID,89.133,VALID,0,VALID,22.2176,VALID,154,VALID,0.84375,
2010-04-07, 00:06:04,VALID,917.85,VALID,0,VALID,89.0415,VALID,0,VALID,22.2371,VALID,154,VALID,0.754687,
2010-04-07, 00:07:04,VALID,917.883,VALID,0,VALID,88.828,VALID,0,VALID,22.3152,VALID,154,VALID,0.733984,
2010-04-07, 00:08:04,VALID,917.881,VALID,0,VALID,88.4545,VALID,0,VALID,22.3737,VALID,154,VALID,0.613281,
2010-04-07, 00:09:04,VALID,917.863,VALID,0,VALID,88.0809,VALID,0,VALID,22.4323,VALID,154,VALID,0.696094,
2010-04-07, 00:10:04,VALID,917.859,VALID,0,VALID,87.7455,VALID,0,VALID,22.5103,VALID,154,VALID,0.676562,
2010-04-07, 00:11:04,VALID,917.851,VALID,0,VALID,87.6693,VALID,0,VALID,22.5511,VALID,154,VALID,0.513281,
2010-04-07, 00:12:04,VALID,917.858,VALID,0,VALID,87.6617,VALID,0,VALID,22.5511,VALID,154,VALID,0.492578,
2010-04-07, 00:13:04,VALID,917.853,VALID,0,VALID,87.6693,VALID,0,VALID,22.5299,VALID,154,VALID,0.530078,
2010-04-07, 00:14:04,VALID,917.818,VALID,0,VALID,87.715,VALID,0,VALID,22.5299,VALID,154,VALID,0.325391,
2010-04-07, 00:15:04,VALID,917.8,VALID,0,VALID,87.7989,VALID,0,VALID,22.4908,VALID,154,VALID,0.175,
2010-04-07, 00:16:04,VALID,917.763,VALID,0,VALID,87.8599,VALID,0,VALID,22.4713,VALID,154,VALID,0.202734,
2010-04-07, 00:17:04,VALID,917.742,VALID,0,VALID,87.8294,VALID,0,VALID,22.473,VALID,154,VALID,0.391016,
2010-04-07, 00:18:04,VALID,917.739,VALID,0,VALID,88.302,VALID,0,VALID,22.3933,VALID,154,VALID,0.0605469,
2010-04-07, 00:19:04,VALID,917.722,VALID,0,VALID,88.5079,VALID,0,VALID,22.3347,VALID,154,VALID,0.8125,
2010-04-07, 00:20:04,VALID,917.701,VALID,0,VALID,88.6603,VALID,0,VALID,22.2957,VALID,156,VALID,1.30117,
2010-04-07, 00:21:04,VALID,917.695,VALID,0,VALID,88.7289,VALID,0,VALID,22.2957,VALID,177,VALID,0.824219,
2010-04-07, 00:22:04,VALID,917.693,VALID,0,VALID,88.3706,VALID,0,VALID,22.395,VALID,175,VALID,1.39844,
2010-04-07, 00:23:04,VALID,917.682,VALID,0,VALID,88.1801,VALID,0,VALID,22.4323,VALID,171,VALID,0.943359,
2010-04-07, 00:24:04,VALID,917.642,VALID,0,VALID,87.9437,VALID,0.107441,VALID,22.4908,VALID,171,VALID,1.225,
2010-04-07, 00:25:04,VALID,917.638,VALID,0,VALID,87.715,VALID,0,VALID,22.5103,VALID,187,VALID,0.938281,
2010-04-07, 00:26:04,VALID,917.615,VALID,0,VALID,87.593,VALID,0,VALID,22.5299,VALID,199,VALID,0.934766,
2010-04-07, 00:27:04,VALID,917.592,VALID,0,VALID,87.7913,VALID,0.107441,VALID,22.4908,VALID,165,VALID,1.01133,
2010-04-07, 00:28:04,VALID,917.572,VALID,0,VALID,87.8446,VALID,0,VALID,22.4518,VALID,164,VALID,0.841797,
2010-04-07, 00:29:04,VALID,917.569,VALID,0,VALID,87.9132,VALID,0,VALID,22.4518,VALID,164,VALID,0.890625,
2010-04-07, 00:30:04,VALID,917.574,VALID,0,VALID,88.0123,VALID,0,VALID,22.4111,VALID,192,VALID,1.33711,
2010-04-07, 00:31:04,VALID,917.573,VALID,0,VALID,88.0886,VALID,0,VALID,22.4518,VALID,192,VALID,1.0375,
2010-04-07, 00:32:04,VALID,917.562,VALID,0,VALID,87.6922,VALID,0,VALID,22.4696,VALID,186,VALID,0.833984,
2010-04-07, 00:33:04,VALID,917.606,VALID,0,VALID,87.3567,VALID,0.107441,VALID,22.5281,VALID,186,VALID,0.487891,
2010-04-07, 00:34:04,VALID,917.604,VALID,0,VALID,87.1128,VALID,0,VALID,22.6079,VALID,186,VALID,0.203906,
2010-04-07, 00:35:04,VALID,917.578,VALID,0,VALID,87.1204,VALID,0.107441,VALID,22.6079,VALID,186,VALID,0.49375,
2010-04-07, 00:36:04,VALID,917.599,VALID,0,VALID,87.2195,VALID,0,VALID,22.5672,VALID,186,VALID,0.616016,
2010-04-07, 00:37:04,VALID,917.588,VALID,0,VALID,87.4787,VALID,0,VALID,22.5494,VALID,186,VALID,0.421484,
2010-04-07, 00:38:04,VALID,917.616,VALID,0,VALID,87.2957,VALID,0,VALID,22.5299,VALID,186,VALID,1.04375,
2010-04-07, 00:39:04,VALID,917.64,VALID,0,VALID,87.3034,VALID,0,VALID,22.6079,VALID,185,VALID,0.859375,
2010-04-07, 00:40:04,VALID,917.615,VALID,0,VALID,87.189,VALID,0,VALID,22.5689,VALID,156,VALID,1.00859,
2010-04-07, 00:41:04,VALID,917.635,VALID,0,VALID,87.0594,VALID,0,VALID,22.6062,VALID,158,VALID,0.798828,
2010-04-07, 00:42:04,VALID,917.607,VALID,0,VALID,86.9679,VALID,0,VALID,22.6274,VALID,158,VALID,0.865234,
2010-04-07, 00:43:04,VALID,917.631,VALID,0,VALID,86.724,VALID,0,VALID,22.686,VALID,158,VALID,1.25664,
2010-04-07, 00:44:04,VALID,917.589,VALID,0,VALID,86.419,VALID,0,VALID,22.7055,VALID,158,VALID,0.907422,
2010-04-07, 00:45:04,VALID,917.572,VALID,0,VALID,86.2056,VALID,0.107441,VALID,22.7445,VALID,159,VALID,0.797266,
2010-04-07, 00:46:04,VALID,917.526,VALID,0,VALID,86.2056,VALID,0.107441,VALID,22.7428,VALID,159,VALID,0.480859,
2010-04-07, 00:47:04,VALID,917.558,VALID,0,VALID,86.3352,VALID,0,VALID,22.7641,VALID,159,VALID,0.526563,
2010-04-07, 00:48:04,VALID,917.516,VALID,0,VALID,86.2513,VALID,0,VALID,22.7055,VALID,162,VALID,1.26836,
2010-04-07, 00:49:04,VALID,917.494,VALID,0,VALID,86.5334,VALID,0,VALID,22.7055,VALID,182,VALID,0.971484,
2010-04-07, 00:50:04,VALID,917.454,VALID,0,VALID,86.3885,VALID,0,VALID,22.686,VALID,182,VALID,1.20508,
2010-04-07, 00:51:04,VALID,917.45,VALID,0,VALID,86.5182,VALID,0,VALID,22.686,VALID,182,VALID,1.1668,
2010-04-07, 00:52:04,VALID,917.4,VALID,0,VALID,86.8155,VALID,0,VALID,22.6274,VALID,182,VALID,1.30977,
2010-04-07, 00:53:04,VALID,917.426,VALID,0,VALID,87.067,VALID,0.107441,VALID,22.6079,VALID,182,VALID,1.04023,
2010-04-07, 00:54:04,VALID,917.424,VALID,0,VALID,87.3643,VALID,0,VALID,22.5494,VALID,173,VALID,1.36133,
2010-04-07, 00:55:04,VALID,917.41,VALID,0,VALID,87.5397,VALID,0.107441,VALID,22.4908,VALID,191,VALID,1.31523,
2010-04-07, 00:56:04,VALID,917.403,VALID,0,VALID,87.6922,VALID,0,VALID,22.4501,VALID,198,VALID,1.19414,
2010-04-07, 00:57:04,VALID,917.382,VALID,0,VALID,87.8827,VALID,0,VALID,22.4323,VALID,198,VALID,0.678906,
2010-04-07, 00:58:04,VALID,917.354,VALID,0,VALID,88.0657,VALID,0,VALID,22.4128,VALID,198,VALID,0.786719,
2010-04-07, 00:59:04,VALID,917.358,VALID,0,VALID,88.1877,VALID,0,VALID,22.3737,VALID,198,VALID,0.589063,
2010-04-07, 01:00:04,VALID,917.379,VALID,0,VALID,88.2868,VALID,0,VALID,22.3542,VALID,197,VALID,0.585547,
2010-04-07, 01:01:04,VALID,917.342,VALID,0,VALID,88.5155,VALID,0.107441,VALID,22.3135,VALID,197,VALID,0.229297,
2010-04-07, 01:02:04,VALID,917.35,VALID,0,VALID,88.5765,VALID,0,VALID,22.2957,VALID,197,VALID,0.565234,
2010-04-07, 01:03:04,VALID,917.306,VALID,0,VALID,88.6375,VALID,0,VALID,22.2957,VALID,197,VALID,0.846875,
2010-04-07, 01:04:04,VALID,917.276,VALID,0,VALID,88.6527,VALID,0,VALID,22.2762,VALID,197,VALID,0.8125,
2010-04-07, 01:05:04,VALID,917.271,VALID,0,VALID,88.6984,VALID,0,VALID,22.2762,VALID,197,VALID,0.770312,
2010-04-07, 01:06:04,VALID,917.248,VALID,0,VALID,88.7823,VALID,0,VALID,22.2567,VALID,197,VALID,0.796875,
2010-04-07, 01:07:04,VALID,917.238,VALID,0,VALID,88.8585,VALID,0,VALID,22.2371,VALID,197,VALID,0.749609,
2010-04-07, 01:08:04,VALID,917.219,VALID,0,VALID,89.0415,VALID,0,VALID,22.1964,VALID,197,VALID,0.53125,
2010-04-07, 01:09:04,VALID,917.209,VALID,0,VALID,89.0949,VALID,0.107441,VALID,22.2176,VALID,196,VALID,0.763672,
2010-04-07, 01:10:04,VALID,917.21,VALID,0,VALID,88.9805,VALID,0,VALID,22.2176,VALID,196,VALID,1.21523,
2010-04-07, 01:11:04,VALID,917.199,VALID,0,VALID,89.0567,VALID,0.107441,VALID,22.1769,VALID,196,VALID,0.658984,
2010-04-07, 01:12:04,VALID,917.172,VALID,0,VALID,89.0872,VALID,0.107441,VALID,22.1574,VALID,196,VALID,0.923828,
2010-04-07, 01:13:04,VALID,917.169,VALID,0,VALID,89.2245,VALID,0,VALID,22.1591,VALID,196,VALID,1.06406,
2010-04-07, 01:14:04,VALID,917.181,VALID,0,VALID,89.2931,VALID,0,VALID,22.1591,VALID,196,VALID,1.02617,
2010-04-07, 01:15:04,VALID,917.178,VALID,0,VALID,89.4837,VALID,0,VALID,22.1201,VALID,195,VALID,1.04453,
2010-04-07, 01:16:04,VALID,917.176,VALID,0,VALID,89.6285,VALID,0,VALID,22.081,VALID,195,VALID,0.602734,
2010-04-07, 01:17:04,VALID,917.183,VALID,0,VALID,89.9944,VALID,0,VALID,22.0013,VALID,195,VALID,1.31406,
2010-04-07, 01:18:04,VALID,917.183,VALID,0,VALID,90.2003,VALID,0.107441,VALID,21.9623,VALID,116,VALID,0.509375,
2010-04-07, 01:19:04,VALID,917.191,VALID,0,VALID,90.3222,VALID,0.107441,VALID,21.964,VALID,170,VALID,0.44375,
2010-04-07, 01:20:04,VALID,917.198,VALID,0,VALID,90.3985,VALID,0,VALID,21.9428,VALID,146,VALID,1.40039,
2010-04-07, 01:21:04,VALID,917.188,VALID,0,VALID,90.3832,VALID,0,VALID,21.9233,VALID,106,VALID,0.589844,
2010-04-07, 01:22:04,VALID,917.155,VALID,0,VALID,90.3527,VALID,0,VALID,21.9428,VALID,106,VALID,1.00781,
2010-04-07, 01:23:04,VALID,917.127,VALID,0,VALID,90.4976,VALID,0.107441,VALID,21.9428,VALID,107,VALID,0.811328,
2010-04-07, 01:24:04,VALID,917.117,VALID,0,VALID,90.6424,VALID,0,VALID,21.9249,VALID,107,VALID,0.632422,
2010-04-07, 01:25:04,VALID,917.164,VALID,0,VALID,90.6272,VALID,0,VALID,21.8859,VALID,163,VALID,1.43359,
2010-04-07, 01:26:04,VALID,917.111,VALID,0,VALID,90.4137,VALID,0,VALID,21.9249,VALID,169,VALID,1.46367,
2010-04-07, 01:27:04,VALID,917.143,VALID,0,VALID,90.2536,VALID,0,VALID,21.964,VALID,124,VALID,0.836719,
2010-04-07, 01:28:04,VALID,917.147,VALID,0,VALID,89.9944,VALID,0,VALID,21.964,VALID,152,VALID,1.33125,
2010-04-07, 01:29:04,VALID,917.112,VALID,0,VALID,90.1088,VALID,0,VALID,21.9444,VALID,152,VALID,0.941406,
2010-04-07, 01:30:04,VALID,917.133,VALID,0,VALID,90.2917,VALID,0,VALID,21.9071,VALID,152,VALID,1.31758,
2010-04-07, 01:31:04,VALID,917.142,VALID,0,VALID,90.5433,VALID,0,VALID,21.8859,VALID,152,VALID,1.03711,
2010-04-07, 01:32:04,VALID,917.115,VALID,0,VALID,90.8025,VALID,0,VALID,21.8469,VALID,152,VALID,1.39375,
2010-04-07, 01:33:04,VALID,917.08,VALID,0,VALID,90.8406,VALID,0,VALID,21.8274,VALID,152,VALID,1.41094,
2010-04-07, 01:34:04,VALID,917.057,VALID,0,VALID,90.7187,VALID,0,VALID,21.8469,VALID,152,VALID,1.20352,
2010-04-07, 01:35:04,VALID,917.024,VALID,0,VALID,90.4747,VALID,0,VALID,21.9054,VALID,152,VALID,1.51055,
2010-04-07, 01:36:04,VALID,917.012,VALID,0,VALID,90.2308,VALID,0,VALID,21.9054,VALID,134,VALID,1.68711,
2010-04-07, 01:37:04,VALID,916.996,VALID,0,VALID,90.1545,VALID,0,VALID,21.9054,VALID,149,VALID,1.81836,
2010-04-07, 01:38:04,VALID,916.959,VALID,0,VALID,90.2308,VALID,0,VALID,21.9054,VALID,146,VALID,1.44727,
2010-04-07, 01:39:04,VALID,916.985,VALID,0,VALID,90.246,VALID,0,VALID,21.9249,VALID,145,VALID,1.90898,
2010-04-07, 01:40:04,VALID,916.977,VALID,0,VALID,90.2841,VALID,0,VALID,21.9054,VALID,132,VALID,1.36602,
2010-04-07, 01:41:04,VALID,916.985,VALID,0,VALID,90.3604,VALID,0,VALID,21.9266,VALID,126,VALID,1.68398,
2010-04-07, 01:42:04,VALID,916.982,VALID,0,VALID,90.4061,VALID,0,VALID,21.9054,VALID,121,VALID,1.08164,
2010-04-07, 01:43:04,VALID,916.982,VALID,0,VALID,90.4747,VALID,0,VALID,21.9054,VALID,133,VALID,1.13828,
2010-04-07, 01:44:04,VALID,917.011,VALID,0,VALID,90.3985,VALID,0,VALID,21.9054,VALID,151,VALID,1.33711,
2010-04-07, 01:45:04,VALID,916.986,VALID,0,VALID,90.3299,VALID,0,VALID,21.9249,VALID,130,VALID,0.544922,
2010-04-07, 01:46:04,VALID,917.007,VALID,0,VALID,90.2917,VALID,0,VALID,21.9444,VALID,130,VALID,1.19609,
2010-04-07, 01:47:04,VALID,917.004,VALID,0,VALID,90.246,VALID,0,VALID,21.964,VALID,115,VALID,0.975,
2010-04-07, 01:48:04,VALID,916.99,VALID,0,VALID,90.2079,VALID,0,VALID,21.9835,VALID,164,VALID,0.760938,
2010-04-07, 01:49:04,VALID,916.993,VALID,0,VALID,90.124,VALID,0,VALID,22.0047,VALID,164,VALID,0.573828,
2010-04-07, 01:50:04,VALID,916.988,VALID,0,VALID,90.0783,VALID,0,VALID,22.003,VALID,164,VALID,0.630859,
2010-04-07, 01:51:04,VALID,917.007,VALID,0,VALID,90.1316,VALID,0,VALID,22.003,VALID,164,VALID,0.308984,
2010-04-07, 01:52:04,VALID,917.006,VALID,0,VALID,90.1393,VALID,0,VALID,21.9835,VALID,164,VALID,0.188281,
2010-04-07, 01:53:04,VALID,917.007,VALID,0,VALID,90.3985,VALID,0,VALID,21.964,VALID,164,VALID,0.0707031,
2010-04-07, 01:54:04,VALID,917.004,VALID,0,VALID,90.7644,VALID,0,VALID,21.9266,VALID,164,VALID,0.0191406,
2010-04-07, 01:55:04,VALID,916.987,VALID,0,VALID,91.0998,VALID,0,VALID,21.8876,VALID,164,VALID,0,
2010-04-07, 01:56:04,VALID,917.046,VALID,0,VALID,91.1989,VALID,0,VALID,21.8485,VALID,164,VALID,0,
2010-04-07, 01:57:04,VALID,917.017,VALID,0,VALID,91.4048,VALID,0,VALID,21.7883,VALID,164,VALID,0,
2010-04-07, 01:58:04,VALID,917.01,VALID,0,VALID,91.4429,VALID,0,VALID,21.7103,VALID,164,VALID,0.973437,
2010-04-07, 01:59:04,VALID,916.989,VALID,0,VALID,91.5344,VALID,0,VALID,21.6713,VALID,164,VALID,0.825,
2010-04-07, 02:00:04,VALID,916.956,VALID,0,VALID,91.5877,VALID,0,VALID,21.6518,VALID,115,VALID,0.842188,
2010-04-07, 02:01:04,VALID,916.965,VALID,0,VALID,91.7326,VALID,0,VALID,21.6323,VALID,115,VALID,1.08359,
2010-04-07, 02:02:04,VALID,916.928,VALID,0,VALID,91.8545,VALID,0,VALID,21.5932,VALID,115,VALID,0.440234,
2010-04-07, 02:03:04,VALID,916.901,VALID,0,VALID,92.0146,VALID,0,VALID,21.5542,VALID,115,VALID,0.821094,
2010-04-07, 02:04:04,VALID,916.889,VALID,0,VALID,92.1519,VALID,0,VALID,21.5347,VALID,115,VALID,0.726172,
2010-04-07, 02:05:04,VALID,916.864,VALID,0,VALID,92.2738,VALID,0,VALID,21.5168,VALID,115,VALID,0.789453,
2010-04-07, 02:06:04,VALID,916.843,VALID,0,VALID,92.4492,VALID,0,VALID,21.4567,VALID,115,VALID,0.975,
2010-04-07, 02:07:04,VALID,916.852,VALID,0,VALID,92.6093,VALID,0,VALID,21.4388,VALID,115,VALID,0.809766,
2010-04-07, 02:08:04,VALID,916.877,VALID,0,VALID,92.7312,VALID,0,VALID,21.3981,VALID,115,VALID,0.858203,
2010-04-07, 02:09:04,VALID,916.861,VALID,0,VALID,92.8303,VALID,0,VALID,21.3786,VALID,115,VALID,0.640625,
2010-04-07, 02:10:04,VALID,916.892,VALID,0,VALID,92.9447,VALID,0,VALID,21.3591,VALID,115,VALID,0.388281,
2010-04-07, 02:11:04,VALID,916.873,VALID,0,VALID,93.0514,VALID,0,VALID,21.3396,VALID,115,VALID,0.707812,
2010-04-07, 02:12:04,VALID,916.872,VALID,0,VALID,93.181,VALID,0,VALID,21.3006,VALID,115,VALID,0.391406,
2010-04-07, 02:13:04,VALID,916.853,VALID,0,VALID,93.4021,VALID,0,VALID,21.2421,VALID,115,VALID,0.694531,
2010-04-07, 02:14:04,VALID,916.836,VALID,0,VALID,93.6155,VALID,0,VALID,21.1836,VALID,123,VALID,0.810938,
2010-04-07, 02:15:04,VALID,916.833,VALID,0,VALID,93.9205,VALID,0,VALID,21.164,VALID,148,VALID,0.633984,
2010-04-07, 02:16:04,VALID,916.809,VALID,0,VALID,94.0806,VALID,0,VALID,21.125,VALID,148,VALID,0.875391,
2010-04-07, 02:17:04,VALID,916.782,VALID,0,VALID,94.2483,VALID,0,VALID,21.1055,VALID,148,VALID,0.698438,
2010-04-07, 02:18:04,VALID,916.763,VALID,0,VALID,94.3398,VALID,0,VALID,21.086,VALID,148,VALID,0.676562,
2010-04-07, 02:19:04,VALID,916.736,VALID,0,VALID,94.3703,VALID,0,VALID,21.086,VALID,148,VALID,0.824219,
2010-04-07, 02:20:04,VALID,916.727,VALID,0,VALID,94.3321,VALID,0,VALID,21.1055,VALID,149,VALID,0.998438,
2010-04-07, 02:21:04,VALID,916.702,VALID,0,VALID,94.2026,VALID,0,VALID,21.1445,VALID,149,VALID,0.789063,
2010-04-07, 02:22:04,VALID,916.691,VALID,0,VALID,93.9434,VALID,0,VALID,21.1836,VALID,149,VALID,0.730078,
2010-04-07, 02:23:04,VALID,916.692,VALID,0,VALID,93.8519,VALID,0,VALID,21.1836,VALID,149,VALID,0.776563,
2010-04-07, 02:24:04,VALID,916.648,VALID,0,VALID,93.7299,VALID,0,VALID,21.2616,VALID,149,VALID,0.898047,
2010-04-07, 02:25:04,VALID,916.673,VALID,0,VALID,93.4631,VALID,0,VALID,21.3201,VALID,149,VALID,0.775391,
2010-04-07, 02:26:04,VALID,916.635,VALID,0,VALID,93.12,VALID,0,VALID,21.3591,VALID,149,VALID,0.592578,
2010-04-07, 02:27:04,VALID,916.593,VALID,0,VALID,92.8685,VALID,0,VALID,21.4177,VALID,149,VALID,0.965625,
2010-04-07, 02:28:04,VALID,916.579,VALID,0,VALID,92.6702,VALID,0,VALID,21.4355,VALID,149,VALID,0.960547,
2010-04-07, 02:29:04,VALID,916.549,VALID,0,VALID,92.4644,VALID,0,VALID,21.4957,VALID,149,VALID,0.582422,
2010-04-07, 02:30:04,VALID,916.53,VALID,0,VALID,92.3806,VALID,0,VALID,21.5152,VALID,149,VALID,0.176953,
2010-04-07, 02:31:04,VALID,916.5,VALID,0,VALID,92.1823,VALID,0,VALID,21.5168,VALID,149,VALID,0.107031,
2010-04-07, 02:32:04,VALID,916.498,VALID,0,VALID,91.9994,VALID,0,VALID,21.4567,VALID,149,VALID,0,
2010-04-07, 02:33:04,VALID,916.506,VALID,0,VALID,92.0527,VALID,0,VALID,21.4372,VALID,149,VALID,0,
2010-04-07, 02:34:04,VALID,916.492,VALID,0,VALID,92.3043,VALID,0,VALID,21.4177,VALID,149,VALID,0.335156,
2010-04-07, 02:35:04,VALID,916.481,VALID,0,VALID,92.8761,VALID,0,VALID,21.3786,VALID,149,VALID,0.536328,
2010-04-07, 02:36:04,VALID,916.508,VALID,0,VALID,93.242,VALID,0,VALID,21.3396,VALID,149,VALID,0.158594,
2010-04-07, 02:37:04,VALID,916.511,VALID,0,VALID,93.3716,VALID,0,VALID,21.2811,VALID,149,VALID,0,
2010-04-07, 02:38:04,VALID,916.496,VALID,0,VALID,93.5241,VALID,0,VALID,21.2827,VALID,149,VALID,0,
2010-04-07, 02:39:04,VALID,916.494,VALID,0,VALID,93.6384,VALID,0,VALID,21.2421,VALID,149,VALID,0,
2010-04-07, 02:40:04,VALID,916.514,VALID,0,VALID,93.646,VALID,0,VALID,21.2242,VALID,149,VALID,0.380859,
2010-04-07, 02:41:04,VALID,916.515,VALID,0,VALID,93.7223,VALID,0,VALID,21.2031,VALID,149,VALID,0.161719,
2010-04-07, 02:42:04,VALID,916.539,VALID,0,VALID,93.5851,VALID,0,VALID,21.2242,VALID,149,VALID,0.465625,
2010-04-07, 02:43:04,VALID,916.531,VALID,0,VALID,93.3564,VALID,0,VALID,21.1852,VALID,149,VALID,0.578516,
2010-04-07, 02:44:04,VALID,916.546,VALID,0,VALID,93.5469,VALID,0,VALID,21.1461,VALID,149,VALID,0.0558594,
2010-04-07, 02:45:04,VALID,916.557,VALID,0,VALID,93.7528,VALID,0,VALID,21.1055,VALID,149,VALID,0.334766,
2010-04-07, 02:46:04,VALID,916.58,VALID,0,VALID,93.8671,VALID,0,VALID,21.0665,VALID,149,VALID,0.3,
2010-04-07, 02:47:04,VALID,916.573,VALID,0,VALID,93.9205,VALID,0,VALID,21.0681,VALID,149,VALID,0.260938,
2010-04-07, 02:48:04,VALID,916.585,VALID,0,VALID,93.9815,VALID,0,VALID,21.008,VALID,149,VALID,0.415625,
2010-04-07, 02:49:04,VALID,916.627,VALID,0,VALID,94.1034,VALID,0,VALID,21.0096,VALID,149,VALID,0.742578,
2010-04-07, 02:50:04,VALID,916.635,VALID,0,VALID,94.2178,VALID,0,VALID,20.9901,VALID,149,VALID,0.760938,
2010-04-07, 02:51:04,VALID,916.63,VALID,0,VALID,94.2178,VALID,0,VALID,20.93,VALID,149,VALID,0.615625,
2010-04-07, 02:52:04,VALID,916.618,VALID,0,VALID,94.5685,VALID,0,VALID,20.9316,VALID,153,VALID,1.07695,
2010-04-07, 02:53:04,VALID,916.604,VALID,0,VALID,94.8048,VALID,0,VALID,20.9511,VALID,166,VALID,1.09336,
2010-04-07, 02:54:04,VALID,916.595,VALID,0,VALID,94.881,VALID,0,VALID,20.9511,VALID,158,VALID,1.26289,
2010-04-07, 02:55:04,VALID,916.619,VALID,0,VALID,94.9573,VALID,0,VALID,20.9495,VALID,159,VALID,0.85625,
2010-04-07, 02:56:04,VALID,916.599,VALID,0,VALID,94.9725,VALID,0,VALID,20.9495,VALID,159,VALID,0.497266,
2010-04-07, 02:57:04,VALID,916.596,VALID,0,VALID,94.9115,VALID,0,VALID,20.93,VALID,159,VALID,0.775391,
2010-04-07, 02:58:04,VALID,916.593,VALID,0,VALID,94.9725,VALID,0,VALID,20.891,VALID,159,VALID,1.24336,
2010-04-07, 02:59:04,VALID,916.605,VALID,0,VALID,95.0259,VALID,0,VALID,20.891,VALID,159,VALID,0.892578,
2010-04-07, 03:00:04,VALID,916.631,VALID,0,VALID,95.0488,VALID,0,VALID,20.912,VALID,138,VALID,1.40195,
2010-04-07, 03:01:04,VALID,916.574,VALID,0,VALID,95.1021,VALID,0,VALID,20.912,VALID,132,VALID,1.49922,
2010-04-07, 03:02:04,VALID,916.573,VALID,0,VALID,95.0335,VALID,0,VALID,20.9105,VALID,139,VALID,1.33359,
2010-04-07, 03:03:04,VALID,916.581,VALID,0,VALID,95.0183,VALID,0,VALID,20.9105,VALID,144,VALID,1.11719,
2010-04-07, 03:04:04,VALID,916.59,VALID,0,VALID,94.9801,VALID,0,VALID,20.9511,VALID,144,VALID,1.00508,
2010-04-07, 03:05:04,VALID,916.58,VALID,0,VALID,94.9344,VALID,0,VALID,20.9706,VALID,144,VALID,0.917578,
2010-04-07, 03:06:04,VALID,916.566,VALID,0,VALID,94.7667,VALID,0,VALID,20.9706,VALID,158,VALID,0.978906,
2010-04-07, 03:07:04,VALID,916.586,VALID,0,VALID,94.66,VALID,0,VALID,20.9495,VALID,158,VALID,0.628906,
2010-04-07, 03:08:04,VALID,916.597,VALID,0,VALID,94.6066,VALID,0,VALID,20.9511,VALID,158,VALID,0.489453,
2010-04-07, 03:09:04,VALID,916.613,VALID,0,VALID,94.7209,VALID,0,VALID,20.93,VALID,159,VALID,0.604297,
2010-04-07, 03:10:04,VALID,916.584,VALID,0,VALID,94.7438,VALID,0,VALID,20.9316,VALID,158,VALID,0.746875,
2010-04-07, 03:11:04,VALID,916.596,VALID,0,VALID,94.7133,VALID,0,VALID,20.9316,VALID,159,VALID,0.448438,
2010-04-07, 03:12:04,VALID,916.573,VALID,0,VALID,94.7896,VALID,0,VALID,20.9316,VALID,159,VALID,0.745703,
2010-04-07, 03:13:04,VALID,916.617,VALID,0,VALID,94.7972,VALID,0,VALID,20.9316,VALID,158,VALID,0.530859,
2010-04-07, 03:14:04,VALID,916.6,VALID,0,VALID,94.7057,VALID,0,VALID,20.912,VALID,159,VALID,0.523047,
2010-04-07, 03:15:04,VALID,916.618,VALID,0,VALID,94.7591,VALID,0,VALID,20.912,VALID,158,VALID,0.562891,
2010-04-07, 03:16:04,VALID,916.632,VALID,0,VALID,94.7743,VALID,0,VALID,20.912,VALID,158,VALID,0.630859,
2010-04-07, 03:17:04,VALID,916.637,VALID,0,VALID,94.8124,VALID,0,VALID,20.912,VALID,158,VALID,0.955469,
2010-04-07, 03:18:04,VALID,916.648,VALID,0,VALID,94.9192,VALID,0,VALID,20.912,VALID,158,VALID,0.896094,
2010-04-07, 03:19:04,VALID,916.662,VALID,0,VALID,94.8582,VALID,0,VALID,20.912,VALID,158,VALID,0.678906,
2010-04-07, 03:20:04,VALID,916.687,VALID,0,VALID,94.8124,VALID,0,VALID,20.8714,VALID,158,VALID,0.701563,
2010-04-07, 03:21:04,VALID,916.677,VALID,0,VALID,94.8124,VALID,0,VALID,20.873,VALID,158,VALID,0.94375,
2010-04-07, 03:22:04,VALID,916.689,VALID,0,VALID,94.942,VALID,0,VALID,20.873,VALID,158,VALID,0.948828,
2010-04-07, 03:23:04,VALID,916.695,VALID,0,VALID,94.9496,VALID,0,VALID,20.834,VALID,158,VALID,0.878906,
2010-04-07, 03:24:04,VALID,916.692,VALID,0,VALID,94.9268,VALID,0,VALID,20.7934,VALID,158,VALID,1.0668,
2010-04-07, 03:25:04,VALID,916.727,VALID,0,VALID,95.0183,VALID,0,VALID,20.795,VALID,158,VALID,1.00312,
2010-04-07, 03:26:04,VALID,916.743,VALID,0,VALID,95.1402,VALID,0,VALID,20.7755,VALID,125,VALID,1.08125,
2010-04-07, 03:27:04,VALID,916.726,VALID,0,VALID,95.2241,VALID,0,VALID,20.7349,VALID,135,VALID,1.33555,
2010-04-07, 03:28:04,VALID,916.716,VALID,0,VALID,95.3461,VALID,0.107441,VALID,20.795,VALID,143,VALID,1.37422,
2010-04-07, 03:29:04,VALID,916.741,VALID,0,VALID,95.3308,VALID,0,VALID,20.7934,VALID,126,VALID,1.14648,
2010-04-07, 03:30:04,VALID,916.706,VALID,0,VALID,95.2317,VALID,0,VALID,20.8145,VALID,125,VALID,0.664844,
2010-04-07, 03:31:04,VALID,916.722,VALID,0,VALID,95.2241,VALID,0,VALID,20.8535,VALID,125,VALID,0.959766,
2010-04-07, 03:32:04,VALID,916.756,VALID,0,VALID,95.1402,VALID,0,VALID,20.8535,VALID,125,VALID,0.278125,
2010-04-07, 03:33:04,VALID,916.739,VALID,0,VALID,95.1097,VALID,0,VALID,20.8535,VALID,125,VALID,0.416406,
2010-04-07, 03:34:04,VALID,916.726,VALID,0,VALID,95.1021,VALID,0,VALID,20.873,VALID,125,VALID,0.772266,
2010-04-07, 03:35:04,VALID,916.705,VALID,0,VALID,95.1555,VALID,0,VALID,20.873,VALID,165,VALID,0.848047,
2010-04-07, 03:36:04,VALID,916.721,VALID,0,VALID,95.1555,VALID,0,VALID,20.873,VALID,165,VALID,0.866406,
2010-04-07, 03:37:04,VALID,916.694,VALID,0,VALID,95.2012,VALID,0,VALID,20.873,VALID,158,VALID,1.37656,
2010-04-07, 03:38:04,VALID,916.704,VALID,0,VALID,95.2088,VALID,0,VALID,20.873,VALID,154,VALID,1.06289,
2010-04-07, 03:39:04,VALID,916.693,VALID,0,VALID,95.2317,VALID,0.107441,VALID,20.8309,VALID,154,VALID,0.697266,
2010-04-07, 03:40:04,VALID,916.659,VALID,0,VALID,95.3689,VALID,0,VALID,20.8699,VALID,172,VALID,1.81367,
2010-04-07, 03:41:04,VALID,916.674,VALID,0,VALID,95.2241,VALID,0.107441,VALID,20.891,VALID,152,VALID,1.33633,
2010-04-07, 03:42:04,VALID,916.678,VALID,0,VALID,95.2393,VALID,0.107441,VALID,20.8894,VALID,171,VALID,1.57969,
2010-04-07, 03:43:04,VALID,916.691,VALID,0,VALID,95.1174,VALID,0.107441,VALID,20.9105,VALID,153,VALID,1.42734,
2010-04-07, 03:44:04,VALID,916.697,VALID,0,VALID,95.064,VALID,0.107441,VALID,20.8894,VALID,201,VALID,0.658594,